This demonstration page uses our WeatherBlox Daily Observations layout. Learn more.

Left ArrowRight Arrow

Hourly Observations for December 16, 2020

Temp ( °F °C ) Dew Point ( °F °C ) Humidity (%) Winds ( mph kmh ) Pressure ( in mb ) Visibility ( mi km ) Precip ( " mm )
12:52 am 00:52 Cloudy 21 -6.1 17 -8.3 85 85 Calm 30.15 1021 10 16 0.00 0.00
1:52 am 01:52 Cloudy 20 -6.7 17 -8.3 89 89 ENE 3 6 30.14 1021 10 16 0.00 0.00
2:52 am 02:52 Cloudy 21 -6.1 18 -7.8 88 88 SSE 5 7 30.12 1020 10 16 0.00 0.00
3:52 am 03:52 Mostly Cloudy 19 -7.2 16 -8.9 88 88 NE 5 7 30.11 1020 8 13 0.00 0.00
4:52 am 04:52 Cloudy 20 -6.7 18 -7.8 92 92 SE 3 6 30.10 1019 10 16 0.00 0.00
5:18 am 05:18 Cloudy 21 -6.1 18 -7.8 88 88 Calm 30.13 1020 9 14 0.00 0.00
5:52 am 05:52 Cloudy 21 -6.1 18 -7.8 88 88 S 3 6 30.10 1019 10 16 0.00 0.00
6:52 am 06:52 Cloudy 22 -5.6 18 -7.8 85 85 SW 6 9 30.10 1019 9 14 0.00 0.00
7:52 am 07:52 Cloudy with Mist and Fog 22 -5.6 19 -7.2 89 89 SSW 5 7 30.11 1020 5 8 0.00 0.00
8:52 am 08:52 Cloudy with Mist and Fog 22 -5.6 19 -7.2 89 89 SW 5 7 30.11 1020 4 6 0.00 0.00
9:13 am 09:13 Cloudy with Mist and Fog 22 -5.6 19 -7.2 89 89 SSW 7 11 30.15 1021 4 6 0.00 0.00
9:45 am 09:45 Cloudy with Mist and Fog 23 -5 19 -7.2 85 85 S 5 7 30.14 1021 4 6 0.00 0.00
9:52 am 09:52 Cloudy with Mist and Fog 23 -5 19 -7.2 85 85 S 3 6 30.12 1020 5 8 0.00 0.00
10:31 am 10:31 Cloudy with Mist and Fog 23 -5 20 -6.7 88 88 SW 5 7 30.14 1021 5 8 0.00 0.00
10:52 am 10:52 Cloudy with Mist and Fog 24 -4.4 20 -6.7 84 84 SSE 3 6 30.11 1020 6 10 0.00 0.00
11:16 am 11:16 Cloudy with Mist and Fog 24 -4.4 20 -6.7 84 84 SSE 6 9 30.12 1020 5 8 0.00 0.00
11:52 am 11:52 Cloudy with Haze 25 -3.9 20 -6.7 81 81 SSE 7 11 30.08 1019 6 10 0.00 0.00
12:52 pm 12:52 Mostly Cloudy with Haze 26 -3.3 21 -6.1 81 81 SSE 6 9 30.06 1018 6 10 0.00 0.00
1:52 pm 13:52 Cloudy with Haze 26 -3.3 21 -6.1 81 81 S 6 9 30.06 1018 6 10 0.00 0.00
2:06 pm 14:06 Cloudy with Haze 27 -2.8 22 -5.6 81 81 SE 8 13 30.08 1019 6 10 0.00 0.00
2:52 pm 14:52 Cloudy with Haze 27 -2.8 22 -5.6 81 81 SSE 8 13 30.05 1018 6 10 0.00 0.00
3:52 pm 15:52 Mostly Cloudy with Mist and Fog 26 -3.3 22 -5.6 84 84 SSE 7 11 30.06 1018 5 8 0.00 0.00
4:52 pm 16:52 Cloudy with Mist and Fog 27 -2.8 23 -5 85 85 S 8 13 30.06 1018 6 10 0.00 0.00
5:00 pm 17:00 Cloudy 27 -2.8 23 -5 85 85 SSE 9 15 30.08 1019 7 11 0.00 0.00
5:20 pm 17:20 Cloudy 27 -2.8 23 -5 85 85 S 9 15 30.09 1019 8 13 0.00 0.00
5:52 pm 17:52 Cloudy 27 -2.8 23 -5 85 85 SSE 8 13 30.07 1018 8 13 0.00 0.00
6:52 pm 18:52 Cloudy 26 -3.3 23 -5 88 88 SSE 8 13 30.07 1018 7 11 0.00 0.00
7:52 pm 19:52 Cloudy with Mist and Fog 25 -3.9 23 -5 92 92 SSE 8 13 30.07 1018 6 10 0.00 0.00
8:52 pm 20:52 Cloudy with Mist and Fog 24 -4.4 22 -5.6 91 91 SSE 9 15 30.07 1018 6 10 0.00 0.00
9:21 pm 21:21 Mostly Clear 24 -4.4 21 -6.1 88 88 SSE 8 13 30.10 1019 7 11 0.00 0.00
9:52 pm 21:52 Mostly Clear 23 -5 20 -6.7 88 88 SSE 9 15 30.06 1018 7 11 0.00 0.00
10:52 pm 22:52 Mostly Cloudy 23 -5 21 -6.1 92 92 SSE 8 13 30.07 1018 7 11 0.00 0.00
11:52 pm 23:52 Mostly Cloudy 22 -5.6 19 -7.2 89 89 SSE 7 11 30.06 1018 7 11 0.00 0.00

Powered by AerisWeather